Skip Page Navigation
NASA JPL Caltech
NASA Logo - Jet Propulsion Laboratory + View the NASA Portal
+ Center for Near-Earth Object Studies
JPL Home Earth Solar System Stars & Galaxies Technology
JPL Solar System Dynamics
BODIES ORBITS EPHEMERIDES TOOLS PHYSICAL DATA DISCOVERY FAQ SITE MAP
JPL Small-Body Database Browser
Search: [ help ]  
344135 (2000 BO40)
Classification: Main-belt Asteroid          SPK-ID: 2344135
Ephemeris | Orbit Diagram | Orbital Elements | Mission Design | Physical Parameters | Discovery Circumstances | Close-Approach Data ]

[ show orbit diagram ]
Orbital Elements at Epoch 2459000.5 (2020-May-31.0) TDB
Reference: JPL 9 (heliocentric ecliptic J2000)
 Element Value Uncertainty (1-sigma)   Units 
e .2363097515482341 6.6833e-08  
a 2.739066914666313 3.1831e-08 au
q 2.091798692587528 1.8474e-07 au
i 8.27770218551221 7.4655e-06 deg
node 135.079279113337 5.2046e-05 deg
peri 253.9359459764114 5.4596e-05 deg
M 257.6934509144394 2.0681e-05 deg
tp 2459471.047342383685
(2021-Sep-13.54734238)
0.00010065 TDB
period 1655.7790754574
4.53
2.8863e-05
7.902e-08
d
yr
n .2174203100740067 3.79e-09 deg/d
Q 3.386335136745098 3.9353e-08 au
  Orbit Determination Parameters
   # obs. used (total)      138  
   data-arc span      7040 days (19.27 yr)  
   first obs. used      2000-01-28  
   last obs. used      2019-05-08  
   planetary ephem.      DE431  
   SB-pert. ephem.      SB431-N16  
   condition code      0  
   norm. resid. RMS      .58978  
   source      ORB  
   producer      Otto Matic  
   solution date      2019-May-30 09:23:32  

Additional Information
 Earth MOID = 1.11434 au 
 Jupiter MOID = 2.12522 au 
 T_jup = 3.295 
[ show covariance matrix ]

Ephemeris | Orbit Diagram | Orbital Elements | Mission Design | Physical Parameters | Discovery Circumstances | Close-Approach Data ]

Physical Parameter Table
Parameter Symbol Value Units Sigma Reference Notes
absolute magnitude H 16.4   n/a MPO437458  

344135 (2000 BO40)          Discovered 2000-Jan-28 by Spacewatch at Kitt Peak
Reference: 20121128/Numbers.arcLast Updated: 2012-12-03

[ show close-approach data ]
Alternate Designations
 2000 BO40 = 2009 CL41 
Ephemeris | Orbit Diagram | Orbital Elements | Mission Design | Physical Parameters | Discovery Circumstances | Close-Approach Data ]
ABOUT SSD CREDITS/AWARDS PRIVACY/COPYRIGHT GLOSSARY LINKS
FirstGov 2020-Jul-14 04:41 UT
(server date/time)  
NASA Home Page
Site Manager:   Ryan S. Park
Webmaster  Alan B. Chamberlin